[[{"header":{"parameterUnit":"m.s-1","parameterCategory":1,"la1":30.2991,"la2":30.254,"lo1":-89.0895,"lo2":-89.0444,"dy":0.0017,"dx":0.0017,"nx":28,"ny":28,"refTime":"2025-12-06T09:00:00:Z","depth":0,"parameterNumber":2,"parameterNumberName":"U-component_of_WINDS"},"data":[0,0,0,0,0,0,0,0,0,0,0,0,0,0,0,0,0,0,0,0,0,0,0,0,0,0,0,0,0,0,0,0,0,0,0,0,0,0,0,0,0,0,0,0,0,0,0,0,0,0,0,0,0,0,0,0,0,0,-0.0003,-0.0003,0,-0.0034,-0.0035,-0.0035,-0.004,-0.0039,-0.0039,-0.0039,-0.0072,-0.0073,-0.0075,0,0,0,0,0,0,0,0,0,0,0,0,0,0.0052,0.0051,-0.0003,-0.0003,-0.0004,-0.0034,-0.0035,-0.0035,-0.004,-0.0039,-0.0039,-0.0039,-0.0072,-0.0073,-0.0075,0,0,0,0,0,0,0,0,0,0,0,0,0,0.0025,0.005,-0.0003,-0.001,-0.0011,-0.0034,-0.0035,-0.0035,-0.004,-0.0039,-0.0039,-0.0039,-0.0071,-0.0073,-0.0075,-0.0094,0,0,-0.008,-0.0081,0,0,0,0,0,0,0,0,0.0026,0.0023,-0.0008,-0.0009,-0.001,-0.0033,-0.0028,-0.0055,-0.004,-0.0029,-0.0039,-0.0038,-0.006,-0.0062,-0.0069,-0.0096,-0.0097,-0.008,-0.0081,-0.0082,-0.0083,0,0,0,0,0,0,0,0.0028,0.0024,-0.0015,-0.0009,-0.001,-0.0012,-0.0015,-0.0033,-0.0046,-0.003,-0.003,-0.0034,-0.006,-0.0067,-0.007,-0.0098,-0.008,-0.0082,-0.0083,-0.0084,-0.0144,-0.0144,0,0,0,0,0,0,0.0031,0.0026,-0.0014,-0.0016,0.0009,-0.0013,-0.0017,-0.0026,-0.0046,-0.0049,-0.0034,-0.0034,-0.0065,-0.0068,-0.0071,-0.0096,-0.0082,-0.0084,-0.0085,-0.0143,-0.0144,-0.0145,0,0,0,0,0,0,0.0033,0.0028,-0.0013,0.0005,-0.0001,-0.0014,-0.0025,-0.0027,-0.0034,-0.0049,-0.0052,-0.0039,-0.0064,-0.0069,-0.0089,-0.0098,-0.0085,-0.0086,-0.0143,-0.0143,-0.0144,-0.0146,0,0,0,0,0,0,0.0034,0.0028,0.0021,0.0004,-0.0002,-0.003,-0.0025,-0.0028,-0.0037,-0.0037,-0.0055,-0.0057,-0.0064,-0.0086,-0.0091,-0.01,-0.0087,-0.0142,-0.0143,-0.0144,-0.0146,-0.0147,-0.0149,0,0,0,0,0,0.0036,0.0022,0.0021,0.0016,-0.0011,-0.003,-0.0034,-0.0041,-0.0038,-0.0045,-0.0055,-0.0057,-0.0096,-0.0088,-0.0093,-0.0103,-0.0141,-0.0143,-0.0144,-0.0145,-0.0147,-0.0149,0,0,0,0,0,0,0.0038,0.002,0.0018,-0.0002,-0.0014,-0.0031,-0.0041,-0.0043,-0.0057,-0.0057,-0.0066,-0.007,-0.009,-0.0098,-0.009,-0.0124,-0.0118,-0.0121,-0.0118,-0.0119,-0.0121,-0.0119,-0.0089,0,0,0,0,0,0.0036,0.0023,0.0007,-0.0009,-0.0015,-0.0027,-0.0036,-0.0041,-0.0054,-0.006,-0.0071,-0.0085,-0.01,-0.011,-0.0125,-0.0147,-0.0151,-0.0156,-0.0157,-0.0159,-0.0161,-0.0174,-0.0177,-0.0149,-0.0149,-0.0149,0,0,0.0032,0.002,0.0012,-0.0009,-0.002,-0.0034,-0.0032,-0.0047,-0.0058,-0.0062,-0.0082,-0.0091,-0.0107,-0.0128,-0.0138,-0.0136,-0.017,-0.016,-0.0161,-0.0163,-0.0176,-0.0179,-0.0181,-0.0149,-0.0149,-0.0149,0,0,0.0017,0.0007,-0.0008,-0.0019,-0.0034,-0.0042,-0.0046,-0.0062,-0.0068,-0.0088,-0.0092,-0.0106,-0.0132,-0.0143,-0.0153,-0.0173,-0.0176,-0.0178,-0.0186,-0.0199,-0.0201,-0.0203,-0.0212,-0.0215,-0.018,-0.018,-0.018,0,0.0014,-0.0008,-0.0016,-0.0031,-0.0041,-0.0045,-0.0061,-0.0071,-0.0091,-0.0098,-0.0095,-0.0129,-0.014,-0.0164,-0.017,-0.0176,-0.0182,-0.0176,-0.02,-0.0202,-0.0205,-0.0213,-0.0216,-0.018,-0.018,-0.018,-0.018,0,-0.0012,-0.0027,-0.0038,-0.0057,-0.0068,-0.0084,-0.0094,-0.0104,-0.0108,-0.0117,-0.0138,-0.0151,-0.0169,-0.0175,-0.0179,-0.0201,-0.02,-0.0198,-0.0193,-0.0207,-0.0216,-0.0219,-0.018,-0.018,-0.018,-0.018,0,0,-0.0027,-0.0051,-0.0054,-0.0064,-0.0082,-0.0094,-0.011,-0.0128,-0.0137,-0.0151,-0.0166,-0.0188,-0.0188,-0.0198,-0.0204,-0.0215,-0.0232,-0.0213,-0.0213,-0.0217,-0.0259,-0.0261,-0.0264,-0.0234,-0.0234,-0.0235,-0.0258,0,-0.0045,-0.0074,-0.0082,-0.0106,-0.0121,-0.0126,-0.014,-0.0153,-0.0162,-0.0176,-0.0185,-0.0202,-0.0199,-0.0206,-0.0217,-0.0228,-0.0241,-0.0226,-0.0249,-0.0249,-0.0246,-0.0268,-0.027,-0.0291,-0.0261,-0.0262,-0.0262,0,-0.007,-0.0085,-0.0111,-0.0128,-0.0135,-0.0148,-0.0165,-0.0178,-0.0194,-0.0199,-0.0211,-0.0216,-0.0234,-0.0228,-0.0254,-0.0244,-0.0254,-0.026,-0.0261,-0.0265,-0.0257,-0.0273,-0.0298,-0.0301,-0.0267,-0.0266,-0.0266,0,-0.008,-0.0106,-0.0125,-0.0133,-0.0153,-0.0162,-0.0171,-0.0186,-0.0197,-0.0212,-0.022,-0.0237,-0.0247,-0.0261,-0.0271,-0.0265,-0.0297,-0.029,-0.0303,-0.0303,-0.031,-0.0309,-0.0338,-0.0314,-0.0314,-0.0314,-0.0314,0,-0.01,-0.0116,-0.013,-0.0142,-0.0161,-0.017,-0.0188,-0.0198,-0.0211,-0.0226,-0.023,-0.0244,-0.0256,-0.0271,-0.0279,-0.0301,-0.0305,-0.0311,-0.0313,-0.0311,-0.031,-0.0318,-0.0317,-0.0315,-0.0315,-0.0315,-0.0314,0,-0.0114,-0.0124,-0.0146,-0.0163,-0.0168,-0.0181,-0.0197,-0.0209,-0.0218,-0.0236,-0.0241,-0.0255,-0.0274,-0.0285,-0.0309,-0.0314,-0.0338,-0.0339,-0.0333,-0.0334,-0.0347,-0.0346,-0.0382,-0.0387,-0.0359,-0.0359,-0.0359,0,-0.0127,-0.0139,-0.0158,-0.0168,-0.0178,-0.0194,-0.0205,-0.0214,-0.0225,-0.0244,-0.0255,-0.0274,-0.029,-0.032,-0.0333,-0.0352,-0.0354,-0.0365,-0.0357,-0.0355,-0.0356,-0.0355,-0.0357,-0.0367,-0.0367,-0.0367,-0.0367,0,-0.0149,-0.0153,-0.0168,-0.0186,-0.0199,-0.0213,-0.0227,-0.0235,-0.0247,-0.026,-0.0279,-0.0291,-0.0316,-0.0336,-0.0356,-0.0366,-0.0369,-0.037,-0.0374,-0.0373,-0.0369,-0.0373,-0.0338,-0.0369,-0.0369,-0.0369,-0.0369,-0.0369,-0.0163,-0.0175,-0.0191,-0.0208,-0.022,-0.0233,-0.0246,-0.0256,-0.0272,-0.0293,-0.0298,-0.0318,-0.0335,-0.0362,-0.0373,-0.039,-0.0388,-0.0394,-0.0395,-0.0397,-0.0398,-0.0366,-0.0394,-0.0394,-0.0394,-0.0394,-0.0394,0,-0.0186,-0.0196,-0.0212,-0.0232,-0.0246,-0.0247,-0.0263,-0.0275,-0.0293,-0.0308,-0.0324,-0.0347,-0.0366,-0.0381,-0.0401,-0.0412,-0.0414,-0.0417,-0.0417,-0.042,-0.0398,-0.0393,-0.0415,-0.0415,-0.0415,-0.0415,-0.0415,-0.0415,-0.02,-0.022,-0.0227,-0.0254,-0.0264,-0.0284,-0.0294,-0.0307,-0.0319,-0.0344,-0.036,-0.0369,-0.0385,-0.0406,-0.0424,-0.0428,-0.0436,-0.0439,-0.0443,-0.0423,-0.0421,-0.0419,-0.0414,-0.044,-0.044,-0.0464,-0.0464,-0.0464]},{"header":{"parameterUnit":"m.s-1","parameterCategory":1,"la1":30.2991,"la2":30.254,"lo1":-89.0895,"lo2":-89.0444,"dy":0.0017,"dx":0.0017,"nx":28,"ny":28,"refTime":"2025-12-06T09:00:00:Z","depth":0,"parameterNumber":3,"parameterNumberName":"V-component_of_WINDS"},"data":[0,0,0,0,0,0,0,0,0,0,0,0,0,0,0,0,0,0,0,0,0,0,0,0,0,0,0,0,0,0,0,0,0,0,0,0,0,0,0,0,0,0,0,0,0,0,0,0,0,0,0,0,0,0,0,0,0,0,-3.2056,-3.2057,0,-3.2118,-3.2118,-3.2119,-3.2114,-3.2113,-3.2112,-3.2112,-3.2168,-3.2171,-3.2173,0,0,0,0,0,0,0,0,0,0,0,0,0,-3.1928,-3.193,-3.2056,-3.2057,-3.2058,-3.2118,-3.2119,-3.2119,-3.2114,-3.2113,-3.2112,-3.2111,-3.2167,-3.217,-3.2173,0,0,0,0,0,0,0,0,0,0,0,0,0,-3.1986,-3.1931,-3.2056,-3.2063,-3.2064,-3.2118,-3.2119,-3.212,-3.2115,-3.2113,-3.2112,-3.2111,-3.2167,-3.217,-3.2173,-3.2222,0,0,-3.2184,-3.2186,0,0,0,0,0,0,0,0,-3.1982,-3.199,-3.2061,-3.2062,-3.2064,-3.2107,-3.2094,-3.2154,-3.2115,-3.2095,-3.2112,-3.211,-3.2149,-3.2154,-3.2168,-3.2225,-3.2228,-3.2185,-3.2187,-3.2188,-3.2189,0,0,0,0,0,0,0,-3.1978,-3.1988,-3.208,-3.2062,-3.2064,-3.206,-3.2067,-3.2105,-3.2128,-3.2097,-3.2097,-3.2104,-3.2149,-3.2164,-3.2169,-3.2228,-3.2184,-3.2188,-3.219,-3.2191,-3.2328,-3.233,0,0,0,0,0,0,-3.1974,-3.1984,-3.2078,-3.2082,-3.2019,-3.2064,-3.2071,-3.2094,-3.2128,-3.2132,-3.2105,-3.2104,-3.2159,-3.2165,-3.2171,-3.2231,-3.2188,-3.2191,-3.2194,-3.2327,-3.2329,-3.233,0,0,0,0,0,0,-3.1971,-3.1982,-3.2076,-3.2033,-3.2045,-3.2068,-3.2093,-3.2096,-3.2112,-3.2135,-3.2138,-3.2117,-3.2158,-3.2166,-3.221,-3.2233,-3.2193,-3.2196,-3.2325,-3.2327,-3.2329,-3.2351,0,0,0,0,0,0,-3.1967,-3.1981,-3.2002,-3.2034,-3.2047,-3.2116,-3.2095,-3.2099,-3.2119,-3.2117,-3.2147,-3.215,-3.2158,-3.2205,-3.2214,-3.2237,-3.2199,-3.2323,-3.2326,-3.2329,-3.2348,-3.2354,-3.2358,0,0,0,0,0,-3.1963,-3.2004,-3.2003,-3.2014,-3.2074,-3.2117,-3.2125,-3.2134,-3.2121,-3.214,-3.2155,-3.2149,-3.2229,-3.2209,-3.2219,-3.2244,-3.2322,-3.2325,-3.2329,-3.2346,-3.2353,-3.2358,0,0,0,0,0,0,-3.1971,-3.2008,-3.2007,-3.2061,-3.2086,-3.2117,-3.2142,-3.2141,-3.2169,-3.2166,-3.2175,-3.2181,-3.2226,-3.2239,-3.2217,-3.2293,-3.2273,-3.2279,-3.2283,-3.2289,-3.2294,-3.229,-3.2202,0,0,0,0,0,-3.198,-3.2015,-3.2044,-3.2088,-3.2101,-3.2119,-3.2138,-3.2144,-3.217,-3.218,-3.2197,-3.2221,-3.2251,-3.2271,-3.23,-3.235,-3.2356,-3.2371,-3.2376,-3.238,-3.2385,-3.2412,-3.2419,-3.2342,-3.2342,-3.2341,0,0,-3.1997,-3.2021,-3.2042,-3.209,-3.2111,-3.2144,-3.2128,-3.2164,-3.2189,-3.2184,-3.2228,-3.2242,-3.2268,-3.2316,-3.2337,-3.2328,-3.2408,-3.2385,-3.2388,-3.239,-3.2416,-3.2424,-3.243,-3.2344,-3.2343,-3.2343,0,0,-3.2046,-3.2068,-3.2108,-3.2129,-3.2161,-3.2173,-3.2182,-3.2213,-3.2222,-3.2267,-3.2264,-3.2292,-3.2344,-3.2363,-3.2379,-3.2435,-3.2431,-3.2444,-3.247,-3.2496,-3.2503,-3.2508,-3.2528,-3.2535,-3.2449,-3.2449,-3.2449,0,-3.2063,-3.2116,-3.2127,-3.2165,-3.2185,-3.2185,-3.2224,-3.2243,-3.2281,-3.2294,-3.2284,-3.2349,-3.2367,-3.2419,-3.2433,-3.2446,-3.2456,-3.2441,-3.2501,-3.2507,-3.2512,-3.2531,-3.2539,-3.245,-3.245,-3.245,-3.245,0,-3.2135,-3.2172,-3.2199,-3.224,-3.2263,-3.2301,-3.2316,-3.2337,-3.234,-3.2353,-3.2397,-3.2418,-3.2451,-3.2464,-3.2466,-3.2516,-3.2509,-3.25,-3.248,-3.2521,-3.2539,-3.2546,-3.2452,-3.2452,-3.2451,-3.2451,0,0,-3.2192,-3.2239,-3.2249,-3.2267,-3.2302,-3.2329,-3.2366,-3.2401,-3.2419,-3.2445,-3.2475,-3.2519,-3.2511,-3.253,-3.2534,-3.2557,-3.26,-3.2545,-3.2545,-3.2554,-3.2656,-3.2663,-3.2671,-3.2597,-3.2598,-3.2599,-3.2653,0,-3.2245,-3.2314,-3.2325,-3.2384,-3.2417,-3.2416,-3.2448,-3.2472,-3.2484,-3.2512,-3.2524,-3.2556,-3.2542,-3.2554,-3.2576,-3.259,-3.262,-3.2586,-3.2624,-3.2625,-3.2618,-3.2681,-3.2689,-3.2739,-3.2661,-3.2662,-3.2663,0,-3.2317,-3.2348,-3.2411,-3.2441,-3.2456,-3.2485,-3.2517,-3.2545,-3.257,-3.2577,-3.2599,-3.26,-3.2636,-3.2614,-3.2663,-3.264,-3.2656,-3.2664,-3.2666,-3.2671,-3.2647,-3.2687,-3.2755,-3.2763,-3.2674,-3.2673,-3.2672,0,-3.2353,-3.2409,-3.2455,-3.247,-3.2507,-3.2527,-3.2543,-3.2567,-3.2588,-3.2615,-3.2628,-3.2658,-3.2675,-3.2697,-3.2706,-3.269,-3.2754,-3.2734,-3.276,-3.276,-3.2775,-3.2774,-3.2847,-3.2784,-3.2784,-3.2784,-3.2783,0,-3.2411,-3.245,-3.2472,-3.25,-3.2542,-3.2553,-3.2594,-3.2609,-3.2631,-3.266,-3.266,-3.2686,-3.2696,-3.2724,-3.273,-3.277,-3.2777,-3.2783,-3.2784,-3.2783,-3.2783,-3.2794,-3.2791,-3.2786,-3.2785,-3.2785,-3.2784,0,-3.2459,-3.2475,-3.2525,-3.2556,-3.2564,-3.2595,-3.262,-3.2646,-3.2657,-3.2694,-3.2703,-3.2721,-3.2753,-3.2764,-3.2803,-3.2807,-3.2854,-3.2851,-3.2846,-3.2846,-3.2872,-3.287,-3.2956,-3.2967,-3.2896,-3.2897,-3.2898,0,-3.2496,-3.2526,-3.2561,-3.2582,-3.2599,-3.2632,-3.2653,-3.2664,-3.2685,-3.2717,-3.2739,-3.2772,-3.2799,-3.285,-3.2865,-3.2895,-3.2894,-3.2922,-3.2898,-3.2896,-3.2895,-3.2893,-3.2896,-3.2926,-3.2927,-3.2928,-3.2928,0,-3.256,-3.2567,-3.2599,-3.2633,-3.2659,-3.2686,-3.2712,-3.2728,-3.2742,-3.2766,-3.2801,-3.2822,-3.2862,-3.2894,-3.2925,-3.2938,-3.2935,-3.2935,-3.2943,-3.2943,-3.2939,-3.2942,-3.2858,-3.2934,-3.2933,-3.2933,-3.2932,-3.2932,-3.2604,-3.2631,-3.266,-3.2695,-3.2716,-3.274,-3.2767,-3.2782,-3.2812,-3.2848,-3.2851,-3.2888,-3.2912,-3.2952,-3.2967,-3.2995,-3.2987,-3.2998,-3.3001,-3.3004,-3.3006,-3.2934,-3.3,-3.3,-3.3,-3.3,-3.3,0,-3.2668,-3.2687,-3.2719,-3.2757,-3.2784,-3.2781,-3.2809,-3.2832,-3.2865,-3.2889,-3.2916,-3.2955,-3.2986,-3.3004,-3.3034,-3.3053,-3.3052,-3.3061,-3.306,-3.3063,-3.3012,-3.3002,-3.3061,-3.3061,-3.3061,-3.3061,-3.3061,-3.3061,-3.2705,-3.2751,-3.2761,-3.2816,-3.2833,-3.2872,-3.2888,-3.291,-3.2929,-3.2974,-3.3,-3.3012,-3.3033,-3.3065,-3.3093,-3.3097,-3.3108,-3.3117,-3.312,-3.3073,-3.3066,-3.306,-3.3052,-3.312,-3.312,-3.3169,-3.317,-3.317]}]]